Year,Month,Day,Hour,Minute,Value (Times are PST for temperature in C)
2008,08,17,00,00,20.20
2008,08,17,00,01,20.20
2008,08,17,00,02,20.10
2008,08,17,00,03,20.10
2008,08,17,00,04,20.10
2008,08,17,00,05,20.10
2008,08,17,00,06,20.00
2008,08,17,00,07,20.00
2008,08,17,00,08,20.00
2008,08,17,00,09,20.00
2008,08,17,00,10,20.00
2008,08,17,00,11,19.90
2008,08,17,00,12,19.90
2008,08,17,00,13,19.90
2008,08,17,00,14,19.90
2008,08,17,00,15,19.90
2008,08,17,00,16,19.90
2008,08,17,00,17,19.80
2008,08,17,00,18,19.80
2008,08,17,00,19,19.80
2008,08,17,00,20,19.80
2008,08,17,00,21,19.80
2008,08,17,00,22,19.80
2008,08,17,00,23,19.80
2008,08,17,00,24,19.80
2008,08,17,00,25,19.70
2008,08,17,00,26,19.70
2008,08,17,00,27,19.70
2008,08,17,00,28,19.70
2008,08,17,00,29,19.70
2008,08,17,00,30,19.70
2008,08,17,00,31,19.70
2008,08,17,00,32,19.60
2008,08,17,00,33,19.60
2008,08,17,00,34,19.60
2008,08,17,00,35,19.60
2008,08,17,00,36,19.60
2008,08,17,00,37,19.60
2008,08,17,00,38,19.60
2008,08,17,00,39,19.60
2008,08,17,00,40,19.60
2008,08,17,00,41,19.50
2008,08,17,00,42,19.50
2008,08,17,00,43,19.50
2008,08,17,00,44,19.50
2008,08,17,00,45,19.40
2008,08,17,00,46,19.40
2008,08,17,00,47,19.40
2008,08,17,00,48,19.40
2008,08,17,00,49,19.40
2008,08,17,00,50,19.40
2008,08,17,00,51,19.40
2008,08,17,00,52,19.40
2008,08,17,00,53,19.40
2008,08,17,00,54,19.30
2008,08,17,00,55,19.30
2008,08,17,00,56,19.30
2008,08,17,00,57,19.30
2008,08,17,00,58,19.30
2008,08,17,00,59,19.20
2008,08,17,01,00,19.20
2008,08,17,01,01,19.20
2008,08,17,01,02,19.20
2008,08,17,01,03,19.20
2008,08,17,01,04,19.20
2008,08,17,01,05,19.20
2008,08,17,01,06,19.20
2008,08,17,01,07,19.20
2008,08,17,01,08,19.20
2008,08,17,01,09,19.20
2008,08,17,01,10,19.20
2008,08,17,01,11,19.20
2008,08,17,01,12,19.20
2008,08,17,01,13,19.20
2008,08,17,01,14,19.10
2008,08,17,01,15,19.10
2008,08,17,01,16,19.10
2008,08,17,01,17,19.10
2008,08,17,01,18,19.10
2008,08,17,01,19,19.10
2008,08,17,01,20,19.10
2008,08,17,01,21,19.00
2008,08,17,01,22,19.00
2008,08,17,01,23,19.00
2008,08,17,01,24,19.00
2008,08,17,01,25,18.90
2008,08,17,01,26,18.90
2008,08,17,01,27,18.90
2008,08,17,01,28,18.90
2008,08,17,01,29,18.90
2008,08,17,01,30,18.90
2008,08,17,01,31,18.90
2008,08,17,01,32,18.90
2008,08,17,01,33,18.80
2008,08,17,01,34,18.80
2008,08,17,01,35,18.80
2008,08,17,01,36,18.80
2008,08,17,01,37,18.80
2008,08,17,01,38,18.80
2008,08,17,01,39,18.80
2008,08,17,01,40,18.80
2008,08,17,01,41,18.80
2008,08,17,01,42,18.80
2008,08,17,01,43,18.80
2008,08,17,01,44,18.80
2008,08,17,01,45,18.80
2008,08,17,01,46,18.80
2008,08,17,01,47,18.80
2008,08,17,01,48,18.80
2008,08,17,01,49,18.80
2008,08,17,01,50,18.80
2008,08,17,01,51,18.80
2008,08,17,01,52,18.80
2008,08,17,01,53,18.80
2008,08,17,01,54,18.80
2008,08,17,01,55,18.80
2008,08,17,01,56,18.80
2008,08,17,01,57,18.80
2008,08,17,01,58,18.80
2008,08,17,01,59,18.80
2008,08,17,02,00,18.80
2008,08,17,02,01,18.80
2008,08,17,02,02,18.80
2008,08,17,02,03,18.80
2008,08,17,02,04,18.80
2008,08,17,02,05,18.80
2008,08,17,02,06,18.80
2008,08,17,02,07,18.70
2008,08,17,02,08,18.80
2008,08,17,02,09,18.80
2008,08,17,02,10,18.80
2008,08,17,02,11,18.80
2008,08,17,02,12,18.80
2008,08,17,02,13,18.80
2008,08,17,02,14,18.80
2008,08,17,02,15,18.80
2008,08,17,02,16,18.80
2008,08,17,02,17,18.80
2008,08,17,02,18,18.80
2008,08,17,02,19,18.80
2008,08,17,02,20,18.80
2008,08,17,02,21,18.80
2008,08,17,02,22,18.80
2008,08,17,02,23,18.80
2008,08,17,02,24,18.80
2008,08,17,02,25,18.80
2008,08,17,02,26,18.80
2008,08,17,02,27,18.70
2008,08,17,02,28,18.70
2008,08,17,02,29,18.70
2008,08,17,02,30,18.70
2008,08,17,02,31,18.70
2008,08,17,02,32,18.70
2008,08,17,02,33,18.70
2008,08,17,02,34,18.70
2008,08,17,02,35,18.70
2008,08,17,02,36,18.70
2008,08,17,02,37,18.70
2008,08,17,02,38,18.60
2008,08,17,02,39,18.60
2008,08,17,02,40,18.60
2008,08,17,02,41,18.60
2008,08,17,02,42,18.60
2008,08,17,02,43,18.60
2008,08,17,02,44,18.60
2008,08,17,02,45,18.50
2008,08,17,02,46,18.50
2008,08,17,02,47,18.50
2008,08,17,02,48,18.50
2008,08,17,02,49,18.50
2008,08,17,02,50,18.50
2008,08,17,02,51,18.50
2008,08,17,02,52,18.40
2008,08,17,02,53,18.40
2008,08,17,02,54,18.40
2008,08,17,02,55,18.40
2008,08,17,02,56,18.40
2008,08,17,02,57,18.40
2008,08,17,02,58,18.30
2008,08,17,02,59,18.30
2008,08,17,03,00,18.30
2008,08,17,03,01,18.30
2008,08,17,03,02,18.30
2008,08,17,03,03,18.30
2008,08,17,03,04,18.30
2008,08,17,03,05,18.20
2008,08,17,03,06,18.20
2008,08,17,03,07,18.20
2008,08,17,03,08,18.20
2008,08,17,03,09,18.20
2008,08,17,03,10,18.20
2008,08,17,03,11,18.20
2008,08,17,03,12,18.20
2008,08,17,03,13,18.20
2008,08,17,03,14,18.20
2008,08,17,03,15,18.20
2008,08,17,03,16,18.20
2008,08,17,03,17,18.20
2008,08,17,03,18,18.20
2008,08,17,03,19,18.20
2008,08,17,03,20,18.20
2008,08,17,03,21,18.20
2008,08,17,03,22,18.20
2008,08,17,03,23,18.20
2008,08,17,03,24,18.20
2008,08,17,03,25,18.20
2008,08,17,03,26,18.20
2008,08,17,03,27,18.20
2008,08,17,03,28,18.20
2008,08,17,03,29,18.10
2008,08,17,03,30,18.10
2008,08,17,03,31,18.10
2008,08,17,03,32,18.10
2008,08,17,03,33,18.10
2008,08,17,03,34,18.10
2008,08,17,03,35,18.10
2008,08,17,03,36,18.00
2008,08,17,03,37,18.00
2008,08,17,03,38,18.00
2008,08,17,03,39,18.00
2008,08,17,03,40,18.00
2008,08,17,03,41,17.90
2008,08,17,03,42,17.90
2008,08,17,03,43,17.90
2008,08,17,03,44,17.90
2008,08,17,03,45,17.90
2008,08,17,03,46,17.90
2008,08,17,03,47,17.90
2008,08,17,03,48,17.80
2008,08,17,03,49,17.80
2008,08,17,03,50,17.80
2008,08,17,03,51,17.80
2008,08,17,03,52,17.80
2008,08,17,03,53,17.80
2008,08,17,03,54,17.80
2008,08,17,03,55,17.80
2008,08,17,03,56,17.80
2008,08,17,03,57,17.70
2008,08,17,03,58,17.70
2008,08,17,03,59,17.70
2008,08,17,04,00,17.70
2008,08,17,04,01,17.70
2008,08,17,04,02,17.70
2008,08,17,04,03,17.70
2008,08,17,04,04,17.70
2008,08,17,04,05,17.70
2008,08,17,04,06,17.70
2008,08,17,04,07,17.60
2008,08,17,04,08,17.60
2008,08,17,04,09,17.60
2008,08,17,04,10,17.60
2008,08,17,04,11,17.60
2008,08,17,04,12,17.60
2008,08,17,04,13,17.60
2008,08,17,04,14,17.60
2008,08,17,04,15,17.60
2008,08,17,04,16,17.50
2008,08,17,04,17,17.50
2008,08,17,04,18,17.50
2008,08,17,04,19,17.50
2008,08,17,04,20,17.50
2008,08,17,04,21,17.40
2008,08,17,04,22,17.40
2008,08,17,04,23,17.40
2008,08,17,04,24,17.40
2008,08,17,04,25,17.40
2008,08,17,04,26,17.40
2008,08,17,04,27,17.30
2008,08,17,04,28,17.30
2008,08,17,04,29,17.30
2008,08,17,04,30,17.30
2008,08,17,04,31,17.30
2008,08,17,04,32,17.30
2008,08,17,04,33,17.30
2008,08,17,04,34,17.30
2008,08,17,04,35,17.30
2008,08,17,04,36,17.30
2008,08,17,04,37,17.30
2008,08,17,04,38,17.30
2008,08,17,04,39,17.30
2008,08,17,04,40,17.30
2008,08,17,04,41,17.30
2008,08,17,04,42,17.20
2008,08,17,04,43,17.20
2008,08,17,04,44,17.20
2008,08,17,04,45,17.20
2008,08,17,04,46,17.20
2008,08,17,04,47,17.20
2008,08,17,04,48,17.20
2008,08,17,04,49,17.20
2008,08,17,04,50,17.20
2008,08,17,04,51,17.20
2008,08,17,04,52,17.20
2008,08,17,04,53,17.20
2008,08,17,04,54,17.20
2008,08,17,04,55,17.20
2008,08,17,04,56,17.20
2008,08,17,04,57,17.20
2008,08,17,04,58,17.20
2008,08,17,04,59,17.20
2008,08,17,05,00,17.20
2008,08,17,05,01,17.20
2008,08,17,05,02,17.20
2008,08,17,05,03,17.20
2008,08,17,05,04,17.20
2008,08,17,05,05,17.20
2008,08,17,05,06,17.20
2008,08,17,05,07,17.20
2008,08,17,05,08,17.20
2008,08,17,05,09,17.20
2008,08,17,05,10,17.20
2008,08,17,05,11,17.20
2008,08,17,05,12,17.20
2008,08,17,05,13,17.20
2008,08,17,05,14,17.20
2008,08,17,05,15,17.20
2008,08,17,05,16,17.30
2008,08,17,05,17,17.30
2008,08,17,05,18,17.30
2008,08,17,05,19,17.30
2008,08,17,05,20,17.30
2008,08,17,05,21,17.30
2008,08,17,05,22,17.30
2008,08,17,05,23,17.30
2008,08,17,05,24,17.30
2008,08,17,05,25,17.30
2008,08,17,05,26,17.30
2008,08,17,05,27,17.30
2008,08,17,05,28,17.30
2008,08,17,05,29,17.30
2008,08,17,05,30,17.30
2008,08,17,05,31,17.30
2008,08,17,05,32,17.30
2008,08,17,05,33,17.30
2008,08,17,05,34,17.30
2008,08,17,05,35,17.30
2008,08,17,05,36,17.30
2008,08,17,05,37,17.30
2008,08,17,05,38,17.30
2008,08,17,05,39,17.30
2008,08,17,05,40,17.30
2008,08,17,05,41,17.30
2008,08,17,05,42,17.30
2008,08,17,05,43,17.30
2008,08,17,05,44,17.40
2008,08,17,05,45,17.40
2008,08,17,05,46,17.40
2008,08,17,05,47,17.40
2008,08,17,05,48,17.40
2008,08,17,05,49,17.40
2008,08,17,05,50,17.40
2008,08,17,05,51,17.40
2008,08,17,05,52,17.40
2008,08,17,05,53,17.40
2008,08,17,05,54,17.40
2008,08,17,05,55,17.40
2008,08,17,05,56,17.40
2008,08,17,05,57,17.40
2008,08,17,05,58,17.40
2008,08,17,05,59,17.40
2008,08,17,06,00,17.40
2008,08,17,06,01,17.40
2008,08,17,06,02,17.40
2008,08,17,06,03,17.40
2008,08,17,06,04,17.40
2008,08,17,06,05,17.40
2008,08,17,06,06,17.40
2008,08,17,06,07,17.40
2008,08,17,06,08,17.40
2008,08,17,06,09,17.40
2008,08,17,06,10,17.40
2008,08,17,06,11,17.40
2008,08,17,06,12,17.40
2008,08,17,06,13,17.40
2008,08,17,06,14,17.40
2008,08,17,06,15,17.40
2008,08,17,06,16,17.40
2008,08,17,06,17,17.40
2008,08,17,06,18,17.40
2008,08,17,06,19,17.40
2008,08,17,06,20,17.40
2008,08,17,06,21,17.40
2008,08,17,06,22,17.40
2008,08,17,06,23,17.40
2008,08,17,06,24,17.40
2008,08,17,06,25,17.40
2008,08,17,06,26,17.40
2008,08,17,06,27,17.40
2008,08,17,06,28,17.40
2008,08,17,06,29,17.40
2008,08,17,06,30,17.40
2008,08,17,06,31,17.40
2008,08,17,06,32,17.40
2008,08,17,06,33,17.40
2008,08,17,06,34,17.40
2008,08,17,06,35,17.40
2008,08,17,06,36,17.50
2008,08,17,06,37,17.50
2008,08,17,06,38,17.50
2008,08,17,06,39,17.50
2008,08,17,06,40,17.60
2008,08,17,06,41,17.60
2008,08,17,06,42,17.60
2008,08,17,06,43,17.60
2008,08,17,06,44,17.60
2008,08,17,06,45,17.60
2008,08,17,06,46,17.60
2008,08,17,06,47,17.60
2008,08,17,06,48,17.70
2008,08,17,06,49,17.70
2008,08,17,06,50,17.70
2008,08,17,06,51,17.70
2008,08,17,06,52,17.70
2008,08,17,06,53,17.70
2008,08,17,06,54,17.70
2008,08,17,06,55,17.70
2008,08,17,06,56,17.80
2008,08,17,06,57,17.80
2008,08,17,06,58,17.80
2008,08,17,06,59,17.80
2008,08,17,07,00,17.80
2008,08,17,07,01,17.90
2008,08,17,07,02,17.90
2008,08,17,07,03,18.00
2008,08,17,07,04,18.00
2008,08,17,07,05,18.00
2008,08,17,07,06,18.10
2008,08,17,07,07,18.10
2008,08,17,07,08,18.10
2008,08,17,07,09,18.10
2008,08,17,07,10,18.10
2008,08,17,07,11,18.10
2008,08,17,07,12,18.20
2008,08,17,07,13,18.20
2008,08,17,07,14,18.20
2008,08,17,07,15,18.20
2008,08,17,07,16,18.20
2008,08,17,07,17,18.20
2008,08,17,07,18,18.20
2008,08,17,07,19,18.20
2008,08,17,07,20,18.20
2008,08,17,07,21,18.20
2008,08,17,07,22,18.20
2008,08,17,07,23,18.20
2008,08,17,07,24,18.20
2008,08,17,07,25,18.20
2008,08,17,07,26,18.20
2008,08,17,07,27,18.20
2008,08,17,07,28,18.20
2008,08,17,07,29,18.20
2008,08,17,07,30,18.20
2008,08,17,07,31,18.20
2008,08,17,07,32,18.20
2008,08,17,07,33,18.20
2008,08,17,07,34,18.20
2008,08,17,07,35,18.20
2008,08,17,07,36,18.20
2008,08,17,07,37,18.20
2008,08,17,07,38,18.20
2008,08,17,07,39,18.20
2008,08,17,07,40,18.20
2008,08,17,07,41,18.20
2008,08,17,07,42,18.20
2008,08,17,07,43,18.20
2008,08,17,07,44,18.30
2008,08,17,07,45,18.30
2008,08,17,07,46,18.30
2008,08,17,07,47,18.30
2008,08,17,07,48,18.30
2008,08,17,07,49,18.30
2008,08,17,07,50,18.30
2008,08,17,07,51,18.30
2008,08,17,07,52,18.30
2008,08,17,07,53,18.40
2008,08,17,07,54,18.40
2008,08,17,07,55,18.40
2008,08,17,07,56,18.40
2008,08,17,07,57,18.40
2008,08,17,07,58,18.40
2008,08,17,07,59,18.40
2008,08,17,08,00,18.50
2008,08,17,08,01,18.50
2008,08,17,08,02,18.50
2008,08,17,08,03,18.50
2008,08,17,08,04,18.50
2008,08,17,08,05,18.50
2008,08,17,08,06,18.60
2008,08,17,08,07,18.60
2008,08,17,08,08,18.60
2008,08,17,08,09,18.70
2008,08,17,08,10,18.70
2008,08,17,08,11,18.70
2008,08,17,08,12,18.70
2008,08,17,08,13,18.80
2008,08,17,08,14,18.80
2008,08,17,08,15,18.90
2008,08,17,08,16,18.90
2008,08,17,08,17,18.90
2008,08,17,08,18,19.00
2008,08,17,08,19,19.10
2008,08,17,08,20,19.10
2008,08,17,08,21,19.20
2008,08,17,08,22,19.30
2008,08,17,08,23,19.30
2008,08,17,08,24,19.40
2008,08,17,08,25,19.50
2008,08,17,08,26,19.60
2008,08,17,08,27,19.60
2008,08,17,08,28,19.70
2008,08,17,08,29,19.80
2008,08,17,08,30,19.90
2008,08,17,08,31,20.00
2008,08,17,08,32,20.00
2008,08,17,08,33,20.10
2008,08,17,08,34,20.20
2008,08,17,08,35,20.20
2008,08,17,08,36,20.30
2008,08,17,08,37,20.30
2008,08,17,08,38,20.30
2008,08,17,08,39,20.40
2008,08,17,08,40,20.40
2008,08,17,08,41,20.50
2008,08,17,08,42,20.60
2008,08,17,08,43,20.60
2008,08,17,08,44,20.70
2008,08,17,08,45,20.70
2008,08,17,08,46,20.80
2008,08,17,08,47,20.90
2008,08,17,08,48,21.00
2008,08,17,08,49,21.00
2008,08,17,08,50,21.10
2008,08,17,08,51,21.20
2008,08,17,08,52,21.30
2008,08,17,08,53,21.40
2008,08,17,08,54,21.40
2008,08,17,08,55,21.50
2008,08,17,08,56,21.60
2008,08,17,08,57,21.70
2008,08,17,08,58,21.80
2008,08,17,08,59,21.80
2008,08,17,09,00,21.90
2008,08,17,09,01,22.00
2008,08,17,09,02,22.10
2008,08,17,09,03,22.20
2008,08,17,09,04,22.20
2008,08,17,09,05,22.30
2008,08,17,09,06,22.40
2008,08,17,09,07,22.40
2008,08,17,09,08,22.40
2008,08,17,09,09,22.40
2008,08,17,09,10,22.40
2008,08,17,09,11,22.40
2008,08,17,09,12,22.40
2008,08,17,09,13,22.40
2008,08,17,09,14,22.50
2008,08,17,09,15,22.50
2008,08,17,09,16,22.60
2008,08,17,09,17,22.60
2008,08,17,09,18,22.70
2008,08,17,09,19,22.70
2008,08,17,09,20,22.70
2008,08,17,09,21,22.70
2008,08,17,09,22,22.80
2008,08,17,09,23,22.80
2008,08,17,09,24,22.80
2008,08,17,09,25,22.80
2008,08,17,09,26,22.80
2008,08,17,09,27,22.80
2008,08,17,09,28,22.90
2008,08,17,09,29,22.90
2008,08,17,09,30,22.90
2008,08,17,09,31,23.00
2008,08,17,09,32,23.10
2008,08,17,09,33,23.10
2008,08,17,09,34,23.20
2008,08,17,09,35,23.20
2008,08,17,09,36,23.30
2008,08,17,09,37,23.40
2008,08,17,09,38,23.40
2008,08,17,09,39,23.40
2008,08,17,09,40,23.50
2008,08,17,09,41,23.60
2008,08,17,09,42,23.60
2008,08,17,09,43,23.60
2008,08,17,09,44,23.70
2008,08,17,09,45,23.70
2008,08,17,09,46,23.70
2008,08,17,09,47,23.80
2008,08,17,09,48,23.80
2008,08,17,09,49,23.90
2008,08,17,09,50,23.90
2008,08,17,09,51,24.00
2008,08,17,09,52,24.00
2008,08,17,09,53,24.10
2008,08,17,09,54,24.10
2008,08,17,09,55,24.20
2008,08,17,09,56,24.20
2008,08,17,09,57,24.30
2008,08,17,09,58,24.30
2008,08,17,09,59,24.40
2008,08,17,10,00,24.40
2008,08,17,10,01,24.40
2008,08,17,10,02,24.50
2008,08,17,10,03,24.50
2008,08,17,10,04,24.60
2008,08,17,10,05,24.60
2008,08,17,10,06,24.70
2008,08,17,10,07,24.70
2008,08,17,10,08,24.70
2008,08,17,10,09,24.80
2008,08,17,10,10,24.80
2008,08,17,10,11,24.90
2008,08,17,10,12,24.90
2008,08,17,10,13,25.00
2008,08,17,10,14,25.10
2008,08,17,10,15,25.10
2008,08,17,10,16,25.10
2008,08,17,10,17,25.10
2008,08,17,10,18,25.20
2008,08,17,10,19,25.20
2008,08,17,10,20,25.20
2008,08,17,10,21,25.30
2008,08,17,10,22,25.40
2008,08,17,10,23,25.50
2008,08,17,10,24,25.50
2008,08,17,10,25,25.60
2008,08,17,10,26,25.60
2008,08,17,10,27,25.70
2008,08,17,10,28,25.80
2008,08,17,10,29,25.90
2008,08,17,10,30,26.00
2008,08,17,10,31,26.10
2008,08,17,10,32,26.10
2008,08,17,10,33,26.10
2008,08,17,10,34,26.20
2008,08,17,10,35,26.20
2008,08,17,10,36,26.30
2008,08,17,10,37,26.30
2008,08,17,10,38,26.30
2008,08,17,10,39,26.40
2008,08,17,10,40,26.50
2008,08,17,10,41,26.60
2008,08,17,10,42,26.60
2008,08,17,10,43,26.70
2008,08,17,10,44,26.70
2008,08,17,10,45,26.80
2008,08,17,10,46,26.80
2008,08,17,10,47,26.80
2008,08,17,10,48,26.80
2008,08,17,10,49,26.80
2008,08,17,10,50,26.70
2008,08,17,10,51,26.70
2008,08,17,10,52,26.70
2008,08,17,10,53,26.70
2008,08,17,10,54,26.70
2008,08,17,10,55,26.80
2008,08,17,10,56,26.80
2008,08,17,10,57,26.80
2008,08,17,10,58,26.80
2008,08,17,10,59,26.80
2008,08,17,11,00,26.80
2008,08,17,11,01,26.80
2008,08,17,11,02,26.80
2008,08,17,11,03,26.80
2008,08,17,11,04,26.80
2008,08,17,11,05,26.90
2008,08,17,11,06,27.00
2008,08,17,11,07,27.00
2008,08,17,11,08,27.10
2008,08,17,11,09,27.20
2008,08,17,11,10,27.20
2008,08,17,11,11,27.30
2008,08,17,11,12,27.30
2008,08,17,11,13,27.30
2008,08,17,11,14,27.30
2008,08,17,11,15,27.30
2008,08,17,11,16,27.30
2008,08,17,11,17,27.30
2008,08,17,11,18,27.30
2008,08,17,11,19,27.30
2008,08,17,11,20,27.30
2008,08,17,11,21,27.30
2008,08,17,11,22,27.30
2008,08,17,11,23,27.20
2008,08,17,11,24,27.20
2008,08,17,11,25,27.20
2008,08,17,11,26,27.20
2008,08,17,11,27,27.20
2008,08,17,11,28,27.20
2008,08,17,11,29,27.20
2008,08,17,11,30,27.20
2008,08,17,11,31,27.30
2008,08,17,11,32,27.30
2008,08,17,11,33,27.40
2008,08,17,11,34,27.50
2008,08,17,11,35,27.50
2008,08,17,11,36,27.60
2008,08,17,11,37,27.70
2008,08,17,11,38,27.70
2008,08,17,11,39,27.80
2008,08,17,11,40,27.80
2008,08,17,11,41,27.90
2008,08,17,11,42,28.00
2008,08,17,11,43,28.00
2008,08,17,11,44,28.00
2008,08,17,11,45,28.00
2008,08,17,11,46,28.00
2008,08,17,11,47,28.10
2008,08,17,11,48,28.10
2008,08,17,11,49,28.10
2008,08,17,11,50,28.10
2008,08,17,11,51,28.20
2008,08,17,11,52,28.20
2008,08,17,11,53,28.30
2008,08,17,11,54,28.30
2008,08,17,11,55,28.40
2008,08,17,11,56,28.40
2008,08,17,11,57,28.40
2008,08,17,11,58,28.40
2008,08,17,11,59,28.40
2008,08,17,12,00,28.40
2008,08,17,12,01,28.40
2008,08,17,12,02,28.40
2008,08,17,12,03,28.50
2008,08,17,12,04,28.50
2008,08,17,12,05,28.60
2008,08,17,12,06,28.60
2008,08,17,12,07,28.60
2008,08,17,12,08,28.60
2008,08,17,12,09,28.70
2008,08,17,12,10,28.80
2008,08,17,12,11,28.90
2008,08,17,12,12,29.00
2008,08,17,12,13,29.10
2008,08,17,12,14,29.20
2008,08,17,12,15,29.30
2008,08,17,12,16,29.40
2008,08,17,12,17,29.50
2008,08,17,12,18,29.50
2008,08,17,12,19,29.60
2008,08,17,12,20,29.50
2008,08,17,12,21,29.50
2008,08,17,12,22,29.50
2008,08,17,12,23,29.50
2008,08,17,12,24,29.50
2008,08,17,12,25,29.60
2008,08,17,12,26,29.60
2008,08,17,12,27,29.60
2008,08,17,12,28,29.60
2008,08,17,12,29,29.60
2008,08,17,12,30,29.60
2008,08,17,12,31,29.70
2008,08,17,12,32,29.70
2008,08,17,12,33,29.70
2008,08,17,12,34,29.80
2008,08,17,12,35,29.80
2008,08,17,12,36,29.90
2008,08,17,12,37,30.00
2008,08,17,12,38,30.10
2008,08,17,12,39,30.10
2008,08,17,12,40,30.20
2008,08,17,12,41,30.30
2008,08,17,12,42,30.30
2008,08,17,12,43,30.30
2008,08,17,12,44,30.30
2008,08,17,12,45,30.30
2008,08,17,12,46,30.20
2008,08,17,12,47,30.20
2008,08,17,12,48,30.10
2008,08,17,12,49,30.00
2008,08,17,12,50,29.90
2008,08,17,12,51,29.90
2008,08,17,12,52,29.80
2008,08,17,12,53,29.80
2008,08,17,12,54,29.90
2008,08,17,12,55,29.90
2008,08,17,12,56,30.00
2008,08,17,12,57,30.00
2008,08,17,12,58,29.90
2008,08,17,12,59,29.90
2008,08,17,13,00,29.90
2008,08,17,13,01,29.80
2008,08,17,13,02,29.80
2008,08,17,13,03,29.70
2008,08,17,13,04,29.70
2008,08,17,13,05,29.70
2008,08,17,13,06,29.60
2008,08,17,13,07,29.60
2008,08,17,13,08,29.60
2008,08,17,13,09,29.50
2008,08,17,13,10,29.40
2008,08,17,13,11,29.40
2008,08,17,13,12,29.30
2008,08,17,13,13,29.30
2008,08,17,13,14,29.30
2008,08,17,13,15,29.30
2008,08,17,13,16,29.30
2008,08,17,13,17,29.30
2008,08,17,13,18,29.10
2008,08,17,13,19,29.00
2008,08,17,13,20,29.00
2008,08,17,13,21,28.90
2008,08,17,13,22,28.90
2008,08,17,13,23,29.00
2008,08,17,13,24,29.00
2008,08,17,13,25,29.10
2008,08,17,13,26,29.10
2008,08,17,13,27,29.10
2008,08,17,13,28,29.00
2008,08,17,13,29,29.00
2008,08,17,13,30,29.00
2008,08,17,13,31,28.90
2008,08,17,13,32,28.90
2008,08,17,13,33,28.90
2008,08,17,13,34,28.90
2008,08,17,13,35,28.90
2008,08,17,13,36,28.90
2008,08,17,13,37,28.90
2008,08,17,13,38,28.90
2008,08,17,13,39,28.90
2008,08,17,13,40,29.00
2008,08,17,13,41,29.00
2008,08,17,13,42,29.00
2008,08,17,13,43,29.00
2008,08,17,13,44,29.10
2008,08,17,13,45,29.10
2008,08,17,13,46,29.10
2008,08,17,13,47,29.20
2008,08,17,13,48,29.20
2008,08,17,13,49,29.20
2008,08,17,13,50,29.20
2008,08,17,13,51,29.30
2008,08,17,13,52,29.30
2008,08,17,13,53,29.30
2008,08,17,13,54,29.30
2008,08,17,13,55,29.30
2008,08,17,13,56,29.20
2008,08,17,13,57,29.20
2008,08,17,13,58,29.10
2008,08,17,13,59,29.10
2008,08,17,14,00,29.10
2008,08,17,14,01,29.10
2008,08,17,14,02,29.10
2008,08,17,14,03,29.10
2008,08,17,14,04,29.10
2008,08,17,14,05,29.10
2008,08,17,14,06,29.00
2008,08,17,14,07,29.00
2008,08,17,14,08,29.00
2008,08,17,14,09,28.90
2008,08,17,14,10,28.90
2008,08,17,14,11,29.00
2008,08,17,14,12,29.10
2008,08,17,14,13,29.10
2008,08,17,14,14,29.10
2008,08,17,14,15,29.10
2008,08,17,14,16,29.10
2008,08,17,14,17,29.10
2008,08,17,14,18,29.10
2008,08,17,14,19,29.10
2008,08,17,14,20,29.10
2008,08,17,14,21,29.20
2008,08,17,14,22,29.30
2008,08,17,14,23,29.30
2008,08,17,14,24,29.40
2008,08,17,14,25,29.40
2008,08,17,14,26,29.50
2008,08,17,14,27,29.70
2008,08,17,14,28,29.80
2008,08,17,14,29,29.90
2008,08,17,14,30,30.00
2008,08,17,14,31,30.10
2008,08,17,14,32,30.20
2008,08,17,14,33,30.20
2008,08,17,14,34,30.30
2008,08,17,14,35,30.30
2008,08,17,14,36,30.40
2008,08,17,14,37,30.40
2008,08,17,14,38,30.40
2008,08,17,14,39,30.30
2008,08,17,14,40,30.30
2008,08,17,14,41,30.30
2008,08,17,14,42,30.20
2008,08,17,14,43,30.10
2008,08,17,14,44,30.00
2008,08,17,14,45,29.90
2008,08,17,14,46,29.80
2008,08,17,14,47,29.80
2008,08,17,14,48,29.80
2008,08,17,14,49,29.80
2008,08,17,14,50,29.70
2008,08,17,14,51,29.70
2008,08,17,14,52,29.70
2008,08,17,14,53,29.70
2008,08,17,14,54,29.70
2008,08,17,14,55,29.70
2008,08,17,14,56,29.70
2008,08,17,14,57,29.70
2008,08,17,14,58,29.70
2008,08,17,14,59,29.70
2008,08,17,15,00,29.70
2008,08,17,15,01,29.70
2008,08,17,15,02,29.60
2008,08,17,15,03,29.60
2008,08,17,15,04,29.60
2008,08,17,15,05,29.60
2008,08,17,15,06,29.60
2008,08,17,15,07,29.60
2008,08,17,15,08,29.60
2008,08,17,15,09,29.70
2008,08,17,15,10,29.80
2008,08,17,15,11,29.80
2008,08,17,15,12,29.90
2008,08,17,15,13,29.90
2008,08,17,15,14,29.90
2008,08,17,15,15,29.90
2008,08,17,15,16,29.90
2008,08,17,15,17,29.90
2008,08,17,15,18,29.90
2008,08,17,15,19,29.80
2008,08,17,15,20,29.80
2008,08,17,15,21,29.70
2008,08,17,15,22,29.70
2008,08,17,15,23,29.60
2008,08,17,15,24,29.60
2008,08,17,15,25,29.50
2008,08,17,15,26,29.40
2008,08,17,15,27,29.40
2008,08,17,15,28,29.40
2008,08,17,15,29,29.40
2008,08,17,15,30,29.40
2008,08,17,15,31,29.40
2008,08,17,15,32,29.40
2008,08,17,15,33,29.40
2008,08,17,15,34,29.40
2008,08,17,15,35,29.40
2008,08,17,15,36,29.40
2008,08,17,15,37,29.30
2008,08,17,15,38,29.30
2008,08,17,15,39,29.30
2008,08,17,15,40,29.20
2008,08,17,15,41,29.20
2008,08,17,15,42,29.10
2008,08,17,15,43,29.00
2008,08,17,15,44,29.00
2008,08,17,15,45,28.90
2008,08,17,15,46,28.90
2008,08,17,15,47,28.90
2008,08,17,15,48,28.90
2008,08,17,15,49,28.90
2008,08,17,15,50,28.80
2008,08,17,15,51,28.70
2008,08,17,15,52,28.70
2008,08,17,15,53,28.60
2008,08,17,15,54,28.50
2008,08,17,15,55,28.40
2008,08,17,15,56,28.30
2008,08,17,15,57,28.30
2008,08,17,15,58,28.20
2008,08,17,15,59,28.10
2008,08,17,16,00,28.00
2008,08,17,16,01,27.90
2008,08,17,16,02,27.80
2008,08,17,16,03,27.80
2008,08,17,16,04,27.70
2008,08,17,16,05,27.60
2008,08,17,16,06,27.60
2008,08,17,16,07,27.60
2008,08,17,16,08,27.50
2008,08,17,16,09,27.40
2008,08,17,16,10,27.40
2008,08,17,16,11,27.40
2008,08,17,16,12,27.40
2008,08,17,16,13,27.30
2008,08,17,16,14,27.30
2008,08,17,16,15,27.30
2008,08,17,16,16,27.20
2008,08,17,16,17,27.20
2008,08,17,16,18,27.20
2008,08,17,16,19,27.20
2008,08,17,16,20,27.20
2008,08,17,16,21,27.20
2008,08,17,16,22,27.20
2008,08,17,16,23,27.20
2008,08,17,16,24,27.20
2008,08,17,16,25,27.20
2008,08,17,16,26,27.10
2008,08,17,16,27,27.10
2008,08,17,16,28,27.00
2008,08,17,16,29,26.90
2008,08,17,16,30,26.90
2008,08,17,16,31,26.90
2008,08,17,16,32,26.80
2008,08,17,16,33,26.80
2008,08,17,16,34,26.70
2008,08,17,16,35,26.70
2008,08,17,16,36,26.70
2008,08,17,16,37,26.60
2008,08,17,16,38,26.60
2008,08,17,16,39,26.60
2008,08,17,16,40,26.60
2008,08,17,16,41,26.60
2008,08,17,16,42,26.60
2008,08,17,16,43,26.60
2008,08,17,16,44,26.60
2008,08,17,16,45,26.70
2008,08,17,16,46,26.70
2008,08,17,16,47,26.70
2008,08,17,16,48,26.80
2008,08,17,16,49,26.80
2008,08,17,16,50,26.80
2008,08,17,16,51,26.80
2008,08,17,16,52,26.90
2008,08,17,16,53,26.90
2008,08,17,16,54,26.90
2008,08,17,16,55,26.90
2008,08,17,16,56,26.90
2008,08,17,16,57,26.90
2008,08,17,16,58,26.90
2008,08,17,16,59,27.00
2008,08,17,17,00,27.00
2008,08,17,17,01,27.00
2008,08,17,17,02,27.00
2008,08,17,17,03,27.00
2008,08,17,17,04,27.00
2008,08,17,17,05,27.10
2008,08,17,17,06,27.10
2008,08,17,17,07,27.10
2008,08,17,17,08,27.10
2008,08,17,17,09,27.10
2008,08,17,17,10,27.20
2008,08,17,17,11,27.20
2008,08,17,17,12,27.30
2008,08,17,17,13,27.30
2008,08,17,17,14,27.30
2008,08,17,17,15,27.40
2008,08,17,17,16,27.40
2008,08,17,17,17,27.40
2008,08,17,17,18,27.40
2008,08,17,17,19,27.50